TimeCET,TemperatureF,Dew PointF,Humidity,Sea Level PressureIn,VisibilityMPH,Wind Direction,Wind SpeedMPH,Gust SpeedMPH,PrecipitationIn,Events,Conditions,WindDirDegrees,DateUTC
12:00 AM,26.6,24.8,93,29.68,6.2,SW,6.9,-,N/A,,Mostly Cloudy,230,2012-12-05 23:00:00
12:30 AM,24.8,21.2,86,29.68,6.2,SSW,3.5,-,N/A,,Mostly Cloudy,210,2012-12-05 23:30:00
1:00 AM,23,21,89,29.76,7,SW,4.5,,,,Mostly Cloudy,230,2012-12-06 00:00:00
1:00 AM,23.0,21.2,93,29.68,6.2,SW,4.6,-,N/A,,Overcast,230,2012-12-06 00:00:00
1:30 AM,21.2,19.4,93,29.71,6.2,WSW,3.5,-,N/A,,Mostly Cloudy,240,2012-12-06 00:30:00
2:00 AM,21.2,19.4,93,29.71,-9999.0,WSW,6.9,-,N/A,,Clear,250,2012-12-06 01:00:00
2:30 AM,19.4,17.6,93,29.71,-9999.0,SW,8.1,-,N/A,,Clear,220,2012-12-06 01:30:00
3:00 AM,19.4,17.6,93,29.71,-9999.0,WSW,6.9,-,N/A,,Clear,240,2012-12-06 02:00:00
3:30 AM,19.4,17.6,93,29.71,-9999.0,SW,8.1,-,N/A,,Clear,230,2012-12-06 02:30:00
4:00 AM,19.4,17.6,93,29.71,-9999.0,SW,5.8,-,N/A,,Clear,220,2012-12-06 03:00:00
4:30 AM,23.0,19.4,86,29.71,6.2,SW,5.8,-,N/A,,Overcast,230,2012-12-06 03:30:00
5:00 AM,24.8,21.2,86,29.71,6.2,West,4.6,-,N/A,,Mostly Cloudy,260,2012-12-06 04:00:00
5:30 AM,24.8,21.2,86,29.71,6.2,West,4.6,-,N/A,,Overcast,260,2012-12-06 04:30:00
6:00 AM,24.8,23.0,93,29.71,6.2,WSW,3.5,-,N/A,,Overcast,240,2012-12-06 05:00:00
6:30 AM,26.6,24.8,93,29.71,6.2,SW,6.9,-,N/A,,Overcast,230,2012-12-06 05:30:00
7:00 AM,27,23,79,29.78,7,SSW,6.7,,,,Mostly Cloudy,210,2012-12-06 06:00:00
7:00 AM,26.6,23.0,86,29.71,6.2,SSW,5.8,-,N/A,,Mostly Cloudy,210,2012-12-06 06:00:00
7:30 AM,24.8,23.0,93,29.71,6.2,SW,4.6,-,N/A,,Partly Cloudy,220,2012-12-06 06:30:00
8:00 AM,24.8,23.0,93,29.71,6.2,SW,6.9,-,N/A,,Partly Cloudy,230,2012-12-06 07:00:00
8:30 AM,24.8,23.0,93,29.71,6.2,SSW,5.8,-,N/A,,Scattered Clouds,210,2012-12-06 07:30:00
9:00 AM,28.4,24.8,86,29.74,6.2,WSW,9.2,-,N/A,,Scattered Clouds,240,2012-12-06 08:00:00
9:30 AM,30.2,24.8,80,29.74,6.2,West,8.1,-,N/A,,Scattered Clouds,260,2012-12-06 08:30:00
10:00 AM,30.2,24.8,80,29.74,6.2,WSW,5.8,-,N/A,,Partly Cloudy,240,2012-12-06 09:00:00
10:30 AM,30.2,26.6,86,29.71,6.2,SW,8.1,-,N/A,,Mostly Cloudy,230,2012-12-06 09:30:00
11:00 AM,32.0,26.6,80,29.71,6.2,WSW,6.9,-,N/A,,Mostly Cloudy,250,2012-12-06 10:00:00
11:30 AM,33.8,26.6,75,29.71,6.2,SW,9.2,-,N/A,,Scattered Clouds,230,2012-12-06 10:30:00
12:00 PM,33.8,28.4,81,29.71,6.2,SW,11.5,-,N/A,,Mostly Cloudy,230,2012-12-06 11:00:00
12:30 PM,33.8,28.4,81,29.74,5.6,West,8.1,-,N/A,,Overcast,270,2012-12-06 11:30:00
1:00 PM,33,28,77,29.78,5,WSW,8.9,,,Snow,Light Snow,250,2012-12-06 12:00:00
1:00 PM,33.8,28.4,81,29.71,5.6,WSW,9.2,-,N/A,Snow,Light Snow,250,2012-12-06 12:00:00
1:30 PM,32.0,28.4,87,29.71,4.3,WSW,9.2,-,N/A,,Overcast,240,2012-12-06 12:30:00
2:00 PM,32.0,28.4,87,29.74,3.7,SW,8.1,-,N/A,Snow,Light Snow,230,2012-12-06 13:00:00
2:30 PM,32.0,30.2,93,29.74,2.2,SSW,8.1,-,N/A,Snow,Light Snow,210,2012-12-06 13:30:00
3:00 PM,32.0,30.2,93,29.74,0.7,WSW,6.9,-,N/A,Snow,Snow,250,2012-12-06 14:00:00
3:15 PM,32.0,30.2,93,29.74,1.9,SW,8.1,-,N/A,Snow,Light Snow,230,2012-12-06 14:15:00
3:30 PM,32.0,30.2,93,29.74,1.9,SSW,9.2,-,N/A,Snow,Light Snow,210,2012-12-06 14:30:00
4:00 PM,32.0,30.2,93,29.77,3.7,SW,15.0,-,N/A,,Mostly Cloudy,220,2012-12-06 15:00:00
4:30 PM,32.0,24.8,75,29.77,6.2,WSW,18.4,-,N/A,,Partly Cloudy,250,2012-12-06 15:30:00
5:00 PM,30.2,23.0,75,29.80,-9999.0,WSW,13.8,-,N/A,,Clear,240,2012-12-06 16:00:00
5:30 PM,28.4,21.2,74,29.80,-9999.0,SW,11.5,-,N/A,,Clear,230,2012-12-06 16:30:00
6:00 PM,26.6,19.4,74,29.83,-9999.0,SW,11.5,-,N/A,,Clear,230,2012-12-06 17:00:00
6:30 PM,26.6,19.4,74,29.83,6.2,SSW,10.4,-,N/A,,Partly Cloudy,210,2012-12-06 17:30:00
7:00 PM,27,19,61,29.91,19,SW,11.2,,,,Partly Cloudy,220,2012-12-06 18:00:00
7:00 PM,26.6,19.4,74,29.86,6.2,SW,10.4,-,N/A,,Mostly Cloudy,220,2012-12-06 18:00:00
7:30 PM,26.6,19.4,74,29.86,6.2,SSW,12.7,-,N/A,,Partly Cloudy,210,2012-12-06 18:30:00
8:00 PM,26.6,21.2,80,29.86,6.2,SSW,11.5,-,N/A,,Mostly Cloudy,210,2012-12-06 19:00:00
8:30 PM,26.6,21.2,80,29.86,6.2,SW,13.8,-,N/A,,Mostly Cloudy,220,2012-12-06 19:30:00
9:00 PM,26.6,21.2,80,29.86,6.2,SW,13.8,-,N/A,,Partly Cloudy,220,2012-12-06 20:00:00
9:30 PM,26.6,21.2,80,29.86,6.2,SW,13.8,-,N/A,,Mostly Cloudy,220,2012-12-06 20:30:00
10:00 PM,26.6,21.2,80,29.89,6.2,SW,15.0,-,N/A,Snow,Light Snow,220,2012-12-06 21:00:00
10:30 PM,26.6,21.2,80,29.89,6.2,SW,15.0,-,N/A,Snow,Light Snow,230,2012-12-06 21:30:00
11:00 PM,26.6,21.2,80,29.89,6.2,SW,11.5,-,N/A,Snow,Light Snow,230,2012-12-06 22:00:00
11:30 PM,26.6,21.2,80,29.89,6.2,SW,9.2,-,N/A,Snow,Light Snow,230,2012-12-06 22:30:00